Regional Weather Roundup
Issued by NWS Newport/Morehead, NC

Home | Current Version | Previous Version | Text Only | Print | Product List | Glossary On
Versions: 1 2 3 4 5 6 7 8 9 10 11 12 13 14 15 16 17 18 19 20 21 22 23 24 25 26 27 28 29 30 31 32 33 34 35 36 37 38 39 40 41 42 43 44 45 46 47 48 49 50
000
ASUS42 KMHX 280113
RWRMHX
WEATHER ROUNDUP FOR EASTERN NORTH CAROLINA
NATIONAL WEATHER SERVICE NEWPORT/MOREHEAD CITY NC
900 PM EDT WED JUL 27 2016

NOTE: "FAIR" INDICATES FEW OR NO CLOUDS BELOW 12,000 FEET
WITH NO SIGNIFICANT WEATHER AND/OR OBSTRUCTIONS TO VISIBILITY

NCZ015>017-031-032-045>047-102-103-280200-
NORTH COAST

CITY           SKY/WX    TMP DP  RH WIND       PRES   REMARKS
EDENTON        CLOUDY    86  75  69 S5        29.93F
ELIZABETH CITY CLOUDY    85  80  85 E3        29.90F
KITTY HAWK     CLOUDY    84  75  73 SW5       29.90F
MANTEO           N/A     83  76  79 W7        29.92F

$$

NCZ045>047-081-094-103-104-280200-
CENTRAL COAST

CITY           SKY/WX    TMP DP  RH WIND       PRES   REMARKS
FRISCO         LGT RAIN  77  72  84 W7        29.91F

$$

NCZ095-097-098-100-101-280200-
SOUTHERN COAST

CITY           SKY/WX    TMP DP  RH WIND       PRES   REMARKS
BEAUFORT       CLOUDY    85  79  82 SW13      29.95R
CEDAR ISLAND   NOT AVBL
JACKSONVILLE   MOCLDY    87  76  69 SW7       29.93R
PINEY ISLAND   HVY RAIN N/A N/A N/A NE22G28   29.98
WILMINGTON     CLEAR     84  76  76 SW8       29.95R


$$

NCZ011>013-027>030-043-044-078>080-089-090>093-098-280200-
COASTAL PLAIN

CITY           SKY/WX    TMP DP  RH WIND       PRES   REMARKS
AHOSKIE        CLOUDY    81  80  96 CALM      29.92F
CLINTON        CLEAR     88  75  67 CALM      29.93R
ELIZABETHTOWN  CLEAR     89  75  63 CALM      29.93S
GOLDSBORO      PTCLDY    88  78  72 CALM      29.92R HX 102
GREENVILLE     CLOUDY    86  79  79 CALM      29.95R HAZE
HAVELOCK       CLOUDY    83  71  67 N25G37    29.98R SQUALL  THUNDER
KENANSVILLE    NOT AVBL
KINSTON        CLOUDY    88  75  66 CALM      29.94R
NEW BERN       TSTM      76  73  91 NE13      29.99R FOG
RICHLANDS      PTCLDY    86  78  77 SW6       29.94R
ROCKY MOUNT    MOCLDY    84  82  94 CALM      29.93R HX 100
WASHINGTON     CLOUDY    79  77  93 CALM      29.93R
WHITEVILLE     CLEAR     87  78  76 S3        29.93S HX 100

$$

AMZ130-135-150-152-154-156-158-170-250-252-270-ANZ085-086-088-633-658-670-280200-
MARINE OBSERVATIONS

STATION/POSITION TIME  TEMP    WIND        PRES    WAVE   SWELL
                       AIR SEA DIR/SP/G            HT/PER HT/PER
                 (UTC) (F)     (DEG/KT/KT) (MB)    (FT/S) (FT/S)
CHESAPEAKE LIGHT NOT AVBL
64 E VA BEACH    0050   83 83  180/  6/  8 1013.1    2/ 5   2/ 5
DUCK             0000   79 68                N/A
2 E DUCK         0011      76                N/A     1/ 8
OREGON INLET     0000   85 81                N/A
13E OREGON INLT  0100      84                N/A     2/ 5   2/ 7
HATTERAS CG      0000   82 83                N/A
DIAMOND BUOY     0050   85 85  280/ 17/ 21 1013.7    3/ 6   2/ 8
CAPE LOOKOUT     0100   84     230/ 10/ 13 1013.7
BEAUFORT LAB     0000   85 84                N/A
30 SE NEW RVR IN 0008   85 85  230/ 17/ 23 1013.3
30 SE NEW RVR IN 0025      85                N/A     5/ 6
27 SE WRIGHTSVLE 0008   85 84  230/ 16/ 19 1013.8
5 SE WRIGHTSVLE  0008   82 80  230/ 12/ 17 1014.3
225 S CAPE HAT   0050   84 85  230/ 12/ 14 1016.1    4/ 6   3/ 6
41 SE CHARLESTON 0050   86 86  220/ 16/ 17 1014.2    3/ 4   2/ 8

$$




USA.gov is the U.S. government's official web portal to all federal, state and local government web resources and services.